Regional Weather Roundup
Issued by NWS

Home | Current Version | Previous Version | Text Only | Print | Product List | Glossary On
Versions: 1 2 3 4 5 6 7 8 9 10 11 12 13 14 15 16 17 18 19 20 21 22 23 24 25 26 27 28 29 30 31 32 33 34 35 36 37 38 39 40 41 42 43 44 45 46 47 48 49 50
000
ASUS43 KDMX 252001
RWRIA

WEATHER ROUNDUP FOR IOWA
NATIONAL WEATHER SERVICE DES MOINES IA
300 PM CDT TUE APR 25 2017

NOTE: "FAIR" INDICATES FEW OR NO CLOUDS BELOW 12,000 FEET WITH NO
SIGNIFICANT WEATHER AND/OR OBSTRUCTIONS TO VISIBILITY.

* - THESE STATIONS ARE NOT NWS STATIONS...THUS NOT UNDER NWS
QUALITY CONTROL.  THEY ALSO DO NOT REPORT WEATHER SUCH
AS PRECIPITATION OR FOG.

IAZ001>003-012>014-020>022-031>034-043>046-252100-
   NORTHWEST IOWA

CITY           SKY/WX    TMP DP  RH WIND       PRES   REMARKS
CARROLL *      CLOUDY    54  46  76 N16       29.48S
CHEROKEE *     CLOUDY    45  44  95 N7        29.56R
DENISON *      CLOUDY    48  45  87 NE15G21   29.51R
LE MARS *      CLOUDY    43  41  93 N10G17    29.58R
ORANGE CITY *  CLOUDY    41  39  93 N7        29.57R
SHELDON *      CLOUDY    43  39  87 N12       29.56S
SIOUX CITY     LGT RAIN  44  42  93 N12       29.56S
SPENCER        LGT RAIN  44  41  89 NE8       29.57R
STORM LAKE *   PTSUNNY   46  43  87 NE13      29.54S
$$

IAZ055>058-069>071-079>083-090>094-252100-
   SOUTHWEST IOWA

CITY           SKY/WX    TMP DP  RH WIND       PRES   REMARKS
ATLANTIC *     CLOUDY    59  50  72 N14       29.45R
AUDUBON *      CLOUDY    57  48  72 N13       29.47R
CLARINDA *     CLOUDY    70  52  52 S6        29.43S
COUNCIL BLFS * CLOUDY    52  46  82 N18       29.47S
CRESTON *      CLOUDY    70  50  49 S16       29.43S
HARLAN  *      CLOUDY    54  46  76 N14G22    29.52R
LAMONI         CLOUDY    70  51  51 S8        29.42F
RED OAK *      CLOUDY    63  50  63 N20       29.43S
SHENANDOAH *   CLOUDY    63  48  59 N15G22    29.44R
$$

IAZ047>049-059>061-072>074-084-252100-
   CENTRAL IOWA

CITY           SKY/WX    TMP DP  RH WIND       PRES   REMARKS
AMES           PTSUNNY   71  51  49 E12       29.44F
ANKENY *       CLOUDY    72  50  46 E17       29.43F
BOONE *        CLOUDY    68  50  52 E13       29.44F
CHARITON *     CLOUDY    72  50  46 SE13G18   29.42F
DES MOINES     CLOUDY    73  48  41 SE14      29.42F
GRINNELL*      CLOUDY    73  45  36 SE18      29.47F
KNOXVILLE *    CLOUDY    73  48  40 SE17      29.42F
MARSHALLTOWN   CLOUDY    71  52  50 E12       29.45F
NEWTON *       PTSUNNY   73  48  40 SE21G26   29.43F
PELLA *        CLOUDY    73  46  37 SE9       29.46S
PERRY *        CLOUDY    69  46  44 E7        29.43F
$$

IAZ004>006-015-016-023>025-035-036-252100-
   NORTH CENTRAL IOWA

CITY           SKY/WX    TMP DP  RH WIND       PRES   REMARKS
ALGONA *       DRIZZLE   46  46 100 NE13      29.54F
CLARION *      CLOUDY    54  52  94 N13       29.51F
ESTHERVILLE    CLOUDY    42  42 100 NE12      29.55R
FORT DODGE *   PTSUNNY   54  45  71 NE15      29.50F
MASON CITY     LGT RAIN  52  48  86 N12       29.54F
FOREST CITY *  CLOUDY    48  48 100 NE8       29.53F FOG
WEBSTER CITY * PTSUNNY   64  50  59 N13       29.45F
IOWA FALLS *   PTSUNNY   67  51  55 E9        29.50F
$$

IAZ007>011-017>019-026>030-037>042-050>054-066-252100-
   NORTHEAST IOWA

CITY           SKY/WX    TMP DP  RH WIND       PRES   REMARKS
CEDAR RAPIDS   MOSUNNY   75  47  36 SE16G26   29.46F
CHARLES CITY * CLOUDY    61  52  72 N7        29.53S
CLINTON *      MOSUNNY   76  47  35 SE24      29.52F
DECORAH *      CLOUDY    64  50  59 E3        29.53S
DUBUQUE        PTSUNNY   72  43  35 S22G28    29.52F
MONTICELLO *   CLOUDY    75  41  29 SE20G25   29.50S
OELWEIN *      CLOUDY    72  46  40 SE17      29.50F
WATERLOO       CLOUDY    70  51  51 SE8       29.48F
$$

IAZ064-065-067-068-078-252100-
   EAST CENTRAL IOWA

CITY           SKY/WX    TMP DP  RH WIND       PRES   REMARKS
DAVENPORT      PTSUNNY   77  43  29 SE21G31   29.51F
IOWA CITY      MOSUNNY   75  46  35 SE17G25   29.48F
MUSCATINE *    MOSUNNY   79  45  29 SE15G25   29.47F
QUAD CITIES    PTSUNNY   79  45  29 SE17G28   29.49F
$$

IAZ062-063-075>077-085>089-095>099-252100-
   SOUTHEAST IOWA

CITY           SKY/WX    TMP DP  RH WIND       PRES   REMARKS
BURLINGTON     CLOUDY    77  50  38 SE15G24   29.46F
FAIRFIELD *    CLOUDY    75  46  35 SE16G23   29.44F
FORT MADISON * CLOUDY    81  46  30 SE12G24   29.46F HX  80
KEOKUK *       CLOUDY    77  48  36 SE16G23   29.45F
OSKALOOSA *      N/A     74  43  31 SE17G23   29.45S
CENTERVILLE *    N/A     73  48  40 SE15      29.44F
OTTUMWA        CLOUDY    72  47  40 SE13      29.45F
WASHINGTON *   CLOUDY    77  43  29 SE18G28   29.46F
$$

ABBREVIATIONS USED IN REMARKS
   TC - TEMPERATURES IN CELSIUS
  WCI - WIND CHILL INDEX
   HX - HEAT INDEX
  VSB - VISIBILITY
$$





USA.gov is the U.S. government's official web portal to all federal, state and local government web resources and services.